TimeEST,TemperatureF,Dew PointF,Humidity,Sea Level PressureIn,VisibilityMPH,Wind Direction,Wind SpeedMPH,Gust SpeedMPH,PrecipitationIn,Events,Conditions,WindDirDegrees,DateUTC
12:53 AM,43.0,39.0,86,30.34,10.0,North,8.1,-,N/A,,Clear,10,2012-11-17 05:53:00
1:53 AM,43.0,37.0,80,30.33,10.0,NNE,6.9,-,N/A,,Clear,20,2012-11-17 06:53:00
2:53 AM,43.0,36.0,76,30.33,10.0,NNE,12.7,-,N/A,,Clear,20,2012-11-17 07:53:00
3:53 AM,43.0,36.0,76,30.32,10.0,NNE,10.4,-,N/A,,Clear,20,2012-11-17 08:53:00
4:53 AM,43.0,36.0,76,30.32,10.0,NNE,11.5,-,N/A,,Clear,20,2012-11-17 09:53:00
5:53 AM,41.0,35.1,79,30.34,10.0,NNE,12.7,-,N/A,,Clear,20,2012-11-17 10:53:00
6:53 AM,41.0,35.1,79,30.35,10.0,NNE,10.4,-,N/A,,Clear,20,2012-11-17 11:53:00
7:51 AM,42.8,35.6,76,30.36,10.0,NNE,9.2,-,N/A,,Mostly Cloudy,20,2012-11-17 12:51:00
7:53 AM,43.0,36.0,76,30.36,10.0,NNE,10.4,-,N/A,,Mostly Cloudy,20,2012-11-17 12:53:00
8:53 AM,46.0,37.9,73,30.37,10.0,NNE,15.0,-,N/A,,Overcast,20,2012-11-17 13:53:00
9:18 AM,48.2,39.2,71,30.37,10.0,NNE,11.5,-,N/A,,Scattered Clouds,20,2012-11-17 14:18:00
9:53 AM,51.1,42.1,71,30.36,10.0,NNE,16.1,-,N/A,,Clear,30,2012-11-17 14:53:00
10:53 AM,54.0,43.0,66,30.36,10.0,NNE,10.4,-,N/A,,Clear,30,2012-11-17 15:53:00
11:53 AM,55.9,45.0,67,30.35,10.0,NNE,12.7,-,N/A,,Clear,30,2012-11-17 16:53:00
12:53 PM,55.9,45.0,67,30.35,10.0,NE,15.0,-,N/A,,Clear,40,2012-11-17 17:53:00
1:23 PM,57.2,46.4,67,30.33,10.0,NNE,13.8,23.0,N/A,,Mostly Cloudy,30,2012-11-17 18:23:00
1:34 PM,57.2,46.4,67,30.33,10.0,NNE,15.0,-,N/A,,Overcast,20,2012-11-17 18:34:00
1:53 PM,57.0,46.0,67,30.34,10.0,NE,15.0,23.0,N/A,,Mostly Cloudy,40,2012-11-17 18:53:00
2:53 PM,55.9,46.9,72,30.34,10.0,NNE,10.4,19.6,N/A,,Mostly Cloudy,20,2012-11-17 19:53:00
3:53 PM,55.9,46.9,72,30.34,10.0,NNE,16.1,-,N/A,,Mostly Cloudy,20,2012-11-17 20:53:00
4:53 PM,55.0,46.9,74,30.34,10.0,NNE,12.7,-,N/A,,Partly Cloudy,20,2012-11-17 21:53:00
5:53 PM,54.0,46.9,77,30.34,10.0,NNE,12.7,20.7,N/A,,Mostly Cloudy,30,2012-11-17 22:53:00
6:53 PM,54.0,46.0,75,30.34,10.0,NNE,17.3,23.0,N/A,,Scattered Clouds,20,2012-11-17 23:53:00
7:53 PM,54.0,46.0,75,30.35,10.0,NNE,18.4,21.9,N/A,,Mostly Cloudy,30,2012-11-18 00:53:00
8:53 PM,53.1,46.0,77,30.34,10.0,NNE,16.1,25.3,N/A,,Overcast,20,2012-11-18 01:53:00
9:53 PM,52.0,45.0,77,30.34,10.0,NNE,15.0,-,N/A,,Mostly Cloudy,20,2012-11-18 02:53:00
10:53 PM,51.1,45.0,80,30.35,10.0,NNE,15.0,18.4,N/A,,Overcast,20,2012-11-18 03:53:00
11:53 PM,51.1,45.0,80,30.33,10.0,NNE,12.7,-,N/A,,Overcast,20,2012-11-18 04:53:00